This demonstration page uses our WeatherBlox Daily Observations layout. Learn more.

Left ArrowRight Arrow

53.62937, 11.41316

Hourly Observations for June 11, 2015

Temp ( °F °C ) Dew Point ( °F °C ) Humidity (%) Winds ( mph kmh ) Pressure ( in mb ) Visibility ( mi km ) Precip ( " mm )
6:20 am 06:20 Mostly Sunny 43 6 41 5 93 93 N 1 2 30.27 1025 7 11 N/A
6:50 am 06:50 Mostly Sunny 48 9 43 6 82 82 VRB 1 2 30.27 1025 7 11 N/A
7:20 am 07:20 Mostly Sunny 52 11 45 7 77 77 VRB 1 2 30.24 1024 7 11 N/A
7:50 am 07:50 Mostly Sunny 55 13 46 8 72 72 VRB 2 4 30.24 1024 7 11 N/A
8:20 am 08:20 Mostly Sunny 57 14 48 9 72 72 VRB 2 4 30.24 1024 7 11 N/A
8:50 am 08:50 Mostly Sunny 61 16 46 8 59 59 VRB 2 4 30.24 1024 7 11 N/A
9:20 am 09:20 Mostly Sunny 63 17 46 8 56 56 VRB 3 6 30.24 1024 7 11 N/A
9:50 am 09:50 Mostly Sunny 64 18 45 7 49 49 VRB 5 7 30.24 1024 7 11 N/A
10:20 am 10:20 Mostly Sunny 66 19 45 7 46 46 WNW 7 11 30.24 1024 7 11 N/A
10:50 am 10:50 Mostly Sunny 66 19 45 7 46 46 VRB 7 11 30.24 1024 7 11 N/A
11:20 am 11:20 Mostly Sunny 66 19 45 7 46 46 NNW 8 13 30.21 1023 7 11 N/A
11:50 am 11:50 Mostly Sunny 66 19 43 6 43 43 VRB 6 9 30.21 1023 7 11 N/A
12:20 pm 12:20 Mostly Sunny 68 20 43 6 40 40 N 9 15 30.21 1023 7 11 N/A
12:50 pm 12:50 Mostly Sunny 70 21 45 7 40 40 NNW 7 11 30.21 1023 7 11 N/A
1:20 pm 13:20 Mostly Sunny 70 21 41 5 35 35 NNW 8 13 30.18 1022 7 11 N/A
1:50 pm 13:50 Mostly Sunny 70 21 37 3 31 31 VRB 7 11 30.18 1022 7 11 N/A
2:20 pm 14:20 Mostly Sunny 72 22 39 4 31 31 VRB 6 9 30.18 1022 7 11 N/A
2:50 pm 14:50 Mostly Sunny 72 22 41 5 33 33 VRB 3 6 30.15 1021 7 11 N/A
3:20 pm 15:20 Mostly Sunny 72 22 41 5 33 33 WNW 7 11 30.15 1021 7 11 N/A
3:50 pm 15:50 Mostly Sunny 72 22 41 5 33 33 VRB 6 9 30.15 1021 7 11 N/A
4:20 pm 16:20 Mostly Sunny 72 22 41 5 33 33 VRB 3 6 30.15 1021 7 11 N/A
4:50 pm 16:50 Mostly Sunny 72 22 43 6 36 36 VRB 5 7 30.12 1020 7 11 N/A
5:20 pm 17:20 Mostly Sunny 72 22 41 5 33 33 ENE 5 7 30.12 1020 7 11 N/A
5:50 pm 17:50 Mostly Sunny 70 21 43 6 38 38 N 6 9 30.12 1020 7 11 N/A
6:20 pm 18:20 Mostly Sunny 72 22 45 7 38 38 N 7 11 30.12 1020 7 11 N/A
6:50 pm 18:50 Mostly Sunny 72 22 45 7 38 38 NNE 7 11 30.09 1019 7 11 N/A

Powered by AerisWeather